Tracking 19489 objects as of 22-Jan-2019
HD Live streaming from Space Station
objects crossing your sky now

COSMOS 2276 (GLONASS)

Track COSMOS 2276 (GLONASS) now!
COSMOS 2276 (GLONASS) is classified as:


NORAD ID: 23043
Int'l Code: 1994-021A
Perigee: 19,095.1 km
Apogee: 19,179.4 km
Inclination: 64.7 °
Period: 675.7 minutes
Semi major axis: 25508 km
RCS: 4.1637 m2 (large)
Launch date: April 11, 1994
Source: Commonwealth of Independent States (former USSR) (CIS)
Launch site: TYURATAM MISSILE AND SPACE COMPLEX (TTMTR)
SV:
aabbcc
Your satellite tracking list
Your tracking list is empty




NASA's NSSDC Master Catalog

Two Line Element Set (TLE):
1 23043U 94021A   19021.65438729 -.00000022  00000-0  00000+0 0  9999
2 23043  64.6698  35.3747 0016511 191.2176 345.3510  2.13099204192882
Source of the keplerian elements: AFSPC